This demonstration page uses our WeatherBlox Daily Observations layout. Learn more.

Left ArrowRight Arrow

Hourly Observations for January 30, 2018

Temp ( °F °C ) Dew Point ( °F °C ) Humidity (%) Winds ( mph kmh ) Pressure ( in mb ) Visibility ( mi km ) Precip ( " mm )
12:15 am 00:15 Partly Cloudy 32 0 32 0 100 100 Calm 30.03 1017 10 16.0934 0 0
12:30 am 00:30 Partly Cloudy 32 0 32 0 100 100 N 3 6 30.03 1017 10 16.0934 0 0
12:55 am 00:55 Clear 32 0 32 0 100 100 Calm 30.03 1017 10 16.0934 0 0
1:15 am 01:15 Partly Cloudy 30 -1 30 -1 100 100 Calm 30.03 1017 10 16.0934 0 0
1:35 am 01:35 Partly Cloudy 30 -1 30 -1 100 100 Calm 30 1016 10 16.0934 0 0
1:55 am 01:55 Mostly Cloudy 30 -1 30 -1 100 100 W 3 6 30 1016 10 16.0934 0 0
2:15 am 02:15 Cloudy 30 -1 30 -1 100 100 Calm 30 1016 10 16.0934 0 0
2:35 am 02:35 Cloudy 30 -1 30 -1 100 100 W 5 7 30.03 1017 10 16.0934 0 0
2:55 am 02:55 Cloudy 32 0 32 0 100 100 W 8 13 30.03 1017 10 16.0934 0 0
3:15 am 03:15 Cloudy 36 2 34 1 93 93 WNW 16 26 30.03 1017 10 16.0934 0 0
3:35 am 03:35 Cloudy with Light Snow 36 2 34 1 93 93 WNW 13 20 30.03 1017 7 11.26538 0 0
3:55 am 03:55 Cloudy with Light Rain 36 2 36 2 100 100 WNW 16 26 30.06 1018 7 11.26538 0 0
4:15 am 04:15 Cloudy with Light Snow 36 2 34 1 93 93 WNW 16 26 30.06 1018 10 16.0934 0 0
4:35 am 04:35 Cloudy 34 1 34 1 100 100 WNW 12 19 30.06 1018 10 16.0934 0 0
4:55 am 04:55 Cloudy with Light Snow 36 2 32 0 87 87 NW 15 24 30.06 1018 7 11.26538 0 0
5:15 am 05:15 Windy with Snow Likely 34 1 34 1 100 100 NW 20 31 30.06 1018 1.5 2.41401 0 0
5:35 am 05:35 Cloudy 32 0 32 0 100 100 NW 14 22 30.06 1018 10 16.0934 0 0
5:55 am 05:55 Cloudy 34 1 30 -1 87 87 NW 16 26 30.06 1018 10 16.0934 0 0
6:15 am 06:15 Cloudy 34 1 28 -2 81 81 NW 17 28 30.06 1018 10 16.0934 0 0
6:35 am 06:35 Cloudy 32 0 27 -3 80 80 NW 17 28 30.09 1019 10 16.0934 0 0
6:55 am 06:55 Cloudy 32 0 27 -3 80 80 NW 18 30 30.09 1019 10 16.0934 0 0
7:15 am 07:15 Cloudy 32 0 25 -4 75 75 NW 20 31 30.09 1019 10 16.0934 0 0
7:35 am 07:35 Cloudy 32 0 23 -5 69 69 NNW 24 39 30.09 1019 10 16.0934 0 0
7:55 am 07:55 Cloudy 32 0 21 -6 64 64 NW 17 28 30.12 1020 10 16.0934 0 0
8:15 am 08:15 Partly Cloudy 32 0 23 -5 69 69 NW 22 35 30.12 1020 10 16.0934 0 0
8:35 am 08:35 Sunny 32 0 23 -5 69 69 NW 21 33 30.12 1020 10 16.0934 0 0
8:55 am 08:55 Partly Cloudy 32 0 23 -5 69 69 NW 21 33 30.15 1021 10 16.0934 0 0
9:15 am 09:15 Partly Cloudy 32 0 21 -6 64 64 NNW 20 31 30.15 1021 10 16.0934 0 0
9:35 am 09:35 Sunny 32 0 21 -6 64 64 NNW 17 28 30.15 1021 10 16.0934 0 0
9:55 am 09:55 Partly Cloudy 32 0 23 -5 69 69 NW 24 39 30.18 1022 10 16.0934 0 0
10:15 am 10:15 Mostly Cloudy 32 0 21 -6 64 64 NW 21 33 30.18 1022 10 16.0934 0 0
10:35 am 10:35 Cloudy 32 0 21 -6 64 64 NW 23 37 30.18 1022 10 16.0934 0 0
10:55 am 10:55 Cloudy 32 0 21 -6 64 64 NW 28 44 30.21 1023 10 16.0934 0 0
11:15 am 11:15 Cloudy 32 0 19 -7 60 60 NW 23 37 30.21 1023 10 16.0934 0 0
11:35 am 11:35 Cloudy 32 0 19 -7 60 60 NW 25 41 30.21 1023 10 16.0934 0 0
11:55 am 11:55 Cloudy 32 0 18 -8 55 55 NNW 25 41 30.21 1023 10 16.0934 0 0
12:15 pm 12:15 Cloudy 32 0 18 -8 55 55 NNW 24 39 30.18 1022 10 16.0934 0 0
12:35 pm 12:35 Mostly Cloudy 32 0 18 -8 55 55 NW 20 31 30.18 1022 10 16.0934 0 0
12:55 pm 12:55 Mostly Cloudy 32 0 18 -8 55 55 WNW 26 43 30.18 1022 10 16.0934 0 0
1:15 pm 13:15 Mostly Cloudy 32 0 18 -8 55 55 NW 23 37 30.18 1022 10 16.0934 0 0
1:35 pm 13:35 Mostly Cloudy 32 0 18 -8 55 55 WNW 25 41 30.18 1022 10 16.0934 0 0
1:55 pm 13:55 Mostly Cloudy 32 0 18 -8 55 55 NW 21 33 30.18 1022 10 16.0934 0 0
2:15 pm 14:15 Partly Cloudy 32 0 14 -10 47 47 NW 25 41 30.18 1022 10 16.0934 0 0
2:35 pm 14:35 Sunny 32 0 12 -11 44 44 NNW 23 37 30.18 1022 10 16.0934 0 0
2:55 pm 14:55 Sunny 32 0 14 -10 47 47 NW 26 43 30.21 1023 10 16.0934 0 0
3:15 pm 15:15 Partly Cloudy 32 0 14 -10 47 47 WNW 26 43 30.21 1023 10 16.0934 0 0
3:35 pm 15:35 Mostly Cloudy 32 0 12 -11 44 44 NW 18 30 30.21 1023 10 16.0934 0 0
3:55 pm 15:55 Partly Cloudy 32 0 12 -11 44 44 NW 24 39 30.24 1024 10 16.0934 0 0
4:15 pm 16:15 Sunny 32 0 10 -12 40 40 NNW 24 39 30.24 1024 10 16.0934 0 0
4:35 pm 16:35 Partly Cloudy 30 -1 12 -11 47 47 NNW 21 33 30.24 1024 10 16.0934 0 0
4:55 pm 16:55 Partly Cloudy 30 -1 12 -11 47 47 NW 24 39 30.24 1024 10 16.0934 0 0
5:15 pm 17:15 Mostly Cloudy 30 -1 12 -11 47 47 NW 16 26 30.27 1025 10 16.0934 0 0
5:35 pm 17:35 Mostly Cloudy 28 -2 12 -11 51 51 NW 17 28 30.27 1025 10 16.0934 0 0
5:55 pm 17:55 Cloudy 28 -2 10 -12 47 47 NNW 20 31 30.3 1026 10 16.0934 0 0
6:15 pm 18:15 Cloudy 28 -2 12 -11 51 51 NNW 18 30 30.3 1026 10 16.0934 0 0
6:35 pm 18:35 Mostly Cloudy 28 -2 10 -12 47 47 NNW 22 35 30.3 1026 10 16.0934 0 0
6:55 pm 18:55 Partly Cloudy 28 -2 10 -12 47 47 NNW 21 33 30.33 1027 10 16.0934 0 0
7:15 pm 19:15 Clear 27 -3 10 -12 50 50 NNW 25 41 30.33 1027 10 16.0934 0 0
7:35 pm 19:35 Partly Cloudy 27 -3 12 -11 54 54 NW 18 30 30.33 1027 10 16.0934 0 0
7:55 pm 19:55 Partly Cloudy 27 -3 12 -11 54 54 NNW 13 20 30.33 1027 10 16.0934 0 0
8:15 pm 20:15 Partly Cloudy 27 -3 10 -12 50 50 N 14 22 30.36 1028 10 16.0934 0 0
8:35 pm 20:35 Partly Cloudy 27 -3 10 -12 50 50 NNW 16 26 30.36 1028 10 16.0934 0 0
8:55 pm 20:55 Partly Cloudy 27 -3 10 -12 50 50 NNW 14 22 30.36 1028 10 16.0934 0 0
9:15 pm 21:15 Clear 25 -4 10 -12 54 54 NNW 14 22 30.36 1028 10 16.0934 0 0
9:30 pm 21:30 Clear 25 -4 10 -12 54 54 NNW 16 26 30.36 1028 10 16.0934 0 0
9:55 pm 21:55 Clear 25 -4 10 -12 54 54 NNW 16 26 30.36 1028 10 16.0934 0 0
10:15 pm 22:15 Clear 25 -4 10 -12 54 54 NNW 13 20 30.36 1028 10 16.0934 0 0
10:35 pm 22:35 Clear 25 -4 10 -12 54 54 NNW 9 15 30.36 1028 10 16.0934 0 0
10:55 pm 22:55 Clear 23 -5 10 -12 58 58 N 15 24 30.36 1028 10 16.0934 0 0
11:15 pm 23:15 Clear 23 -5 10 -12 58 58 NNW 15 24 30.36 1028 10 16.0934 0 0
11:35 pm 23:35 Clear 23 -5 10 -12 58 58 N 7 11 30.36 1028 10 16.0934 0 0
11:55 pm 23:55 Clear 23 -5 10 -12 58 58 N 5 7 30.36 1028 10 16.0934 0 0

Powered by AerisWeather